Weather History for LESA - June, 2013

Change the Weather History Date:

Wednesday, June 26, 2013

  Actual Average Record
Temperature  
Mean Temperature 66 °F -  
Max Temperature 84 °F - - ()
Min Temperature 48 °F - - ()
Cooling Degree Days 1    
Growing Degree Days 16 (Base 50)    
Moisture  
Dew Point 43 °F    
Average Humidity 48    
Maximum Humidity 87    
Minimum Humidity 8    
Precipitation  
Precipitation 0.00 in 0.03 in - ()
Sea Level Pressure  
Sea Level Pressure 30.23 in    
Wind  
Wind Speed 7 mph ()    
Max Wind Speed 12 mph    
Max Gust Speed -    
Visibility 9.4 miles    
Events      
T = Trace of Precipitation, MM = Missing Value Source: Averaged Metar Reports

Daily Weather History Graph

Daily Weather History Graph

Search for Another Location

Airport or City:

Trip Planner

Search our weather history database for the weather conditions in past years. The results will help you decide how hot, cold, wet, or windy it might be!

Date:

Astronomy

Jun. 26, 2013 Rise Set
Actual Time 6:51 AM CEST 9:58 PM CEST
Civil Twilight 6:18 AM CEST 10:31 PM CEST
Nautical Twilight 5:35 AM CEST 11:14 PM CEST
Astronomical Twilight 4:44 AM CEST 12:05 AM CEST
Moon No Moon Rise 10:28 AM CEST (6/26)
Length of Visible Light 16h 13m
Length of Day
15h 06m
Waning Gibbous, 87% of the Moon is Illuminated
Jun 26
Waning Gibbous
Jun 30
Last Quarter
Jul 8
New
Jul 16
First Quarter
Jul 22
Full

Hourly Weather History & Observations

Time (CEST) Temp. Dew Point Humidity Pressure Visibility Wind Dir Wind Speed Gust Speed Precip Events Conditions
12:00 AM 64.4 °F 48.2 °F 56% 30.27 in - East 8.1 mph - N/A   Clear
12:30 AM 64.4 °F 50.0 °F 59% 30.27 in - East 10.4 mph - N/A   Clear
1:00 AM 60.8 °F 50.0 °F 68% 30.27 in - ENE 8.1 mph - N/A   Clear
1:30 AM 60.8 °F 50.0 °F 68% 30.27 in - ENE 8.1 mph - N/A   Clear
2:00 AM 60 °F 49 °F 58%  in 11 mi ENE 10.4 mph - -  
2:00 AM 59.0 °F 50.0 °F 72% 30.27 in - ENE 10.4 mph - N/A   Clear
2:30 AM 57.2 °F 50.0 °F 77% 30.27 in - East 3.5 mph - N/A   Clear
3:00 AM 57.2 °F 48.2 °F 72% 30.27 in - East 6.9 mph - N/A   Clear
3:30 AM 55.4 °F 48.2 °F 77% 30.27 in - East 8.1 mph - N/A   Clear
4:00 AM 55.4 °F 48.2 °F 77% 30.27 in - East 6.9 mph - N/A   Clear
4:30 AM 53.6 °F 48.2 °F 82% 30.27 in - East 5.8 mph - N/A   Clear
5:00 AM 51.8 °F 46.4 °F 82% 30.24 in - NE 4.6 mph - N/A   Clear
5:30 AM 51.8 °F 44.6 °F 76% 30.24 in - Variable 1.2 mph - N/A   Clear
6:00 AM 50.0 °F 44.6 °F 82% 30.24 in - NE 4.6 mph - N/A   Clear
6:30 AM 50.0 °F 44.6 °F 82% 30.24 in - NE 8.1 mph - N/A   Clear
7:00 AM 48.2 °F 44.6 °F 87% 30.27 in - NE 3.5 mph - N/A   Clear
7:30 AM 50.0 °F 44.6 °F 82% 30.27 in - Variable 1.2 mph - N/A   Clear
8:00 AM 53 °F 45 °F 67%  in 12 mi ENE 5.8 mph - -  
8:00 AM 51.8 °F 44.6 °F 76% 30.27 in - ENE 5.8 mph - N/A   Clear
8:30 AM 53.6 °F 44.6 °F 72% 30.27 in - East 9.2 mph - N/A   Clear
9:00 AM 55.4 °F 44.6 °F 67% 30.27 in - ENE 9.2 mph - N/A   Clear
9:30 AM 57.2 °F 46.4 °F 67% 30.27 in - ENE 6.9 mph - N/A   Clear
10:00 AM 59.0 °F 46.4 °F 63% 30.27 in - ENE 9.2 mph - N/A   Clear
10:30 AM 62.6 °F 46.4 °F 55% 30.27 in - ENE 8.1 mph - N/A   Clear
11:00 AM 64.4 °F 46.4 °F 52% 30.27 in - East 9.2 mph - N/A   Clear
11:30 AM 68.0 °F 46.4 °F 46% 30.27 in - ENE 9.2 mph - N/A   Clear
12:00 PM 71.6 °F 44.6 °F 38% 30.24 in - NE 9.2 mph - N/A   Clear
12:30 PM 71.6 °F 44.6 °F 38% 30.24 in - ENE 10.4 mph - N/A   Clear
1:00 PM 71.6 °F 44.6 °F 38% 30.24 in - ENE 11.5 mph - N/A   Clear
1:30 PM 73.4 °F 44.6 °F 36% 30.24 in - ENE 11.5 mph - N/A   Clear
2:00 PM 77 °F 43 °F 19%  in 12 mi NE 10.4 mph - -  
2:00 PM 75.2 °F 42.8 °F 31% 30.24 in - NE 9.2 mph - N/A   Clear
2:30 PM 77.0 °F 41.0 °F 28% 30.24 in - NE 10.4 mph - N/A   Clear
3:00 PM 78.8 °F 39.2 °F 24% 30.21 in - NE 8.1 mph - N/A   Clear
3:30 PM 80.6 °F 37.4 °F 21% 30.21 in - ENE 8.1 mph - N/A   Clear
4:00 PM 80.6 °F 37.4 °F 21% 30.21 in - ENE 8.1 mph - N/A   Clear
4:30 PM 82.4 °F 35.6 °F 19% 30.21 in - ENE 5.8 mph - N/A   Clear
5:00 PM 82.4 °F 37.4 °F 20% 30.21 in 6.2 mi East 8.1 mph - N/A   Partly Cloudy
5:30 PM 82.4 °F 37.4 °F 20% 30.18 in 6.2 mi Variable 5.8 mph - N/A   Partly Cloudy
6:00 PM 82.4 °F 35.6 °F 19% 30.18 in 6.2 mi Variable 3.5 mph - N/A   Partly Cloudy
6:30 PM 82.4 °F 33.8 °F 17% 30.18 in - ENE 3.5 mph - N/A   Clear
7:00 PM 82.4 °F 32.0 °F 16% 30.18 in - NNE 5.8 mph - N/A   Clear
7:30 PM 82.4 °F 33.8 °F 17% 30.18 in - NNE 5.8 mph - N/A   Clear
8:00 PM 84 °F 31 °F 8%  in 12 mi North 4.6 mph - -   Scattered Clouds
8:00 PM 80.6 °F 37.4 °F 21% 30.15 in - North 4.6 mph - N/A   Clear
8:30 PM 80.6 °F 33.8 °F 18% 30.18 in - NNE 5.8 mph - N/A   Clear
9:00 PM 77.0 °F 41.0 °F 28% 30.18 in - North 4.6 mph - N/A   Clear
9:30 PM 75.2 °F 41.0 °F 29% 30.18 in - NNE 4.6 mph - N/A   Clear
10:00 PM 71.6 °F 39.2 °F 31% 30.18 in - NE 4.6 mph - N/A   Clear
10:30 PM 66.2 °F 41.0 °F 40% 30.18 in - NE 8.1 mph - N/A   Clear
11:00 PM 68.0 °F 42.8 °F 40% 30.18 in - NE 9.2 mph - N/A   Clear
11:30 PM 64.4 °F 44.6 °F 49% 30.21 in - ENE 5.8 mph - N/A   Clear